Charlottetown, Prince Edward Island

11:11 AM ADT on April 25, 2018 (GMT -0300)
Charlottetown

Weather History for CYYG - November, 2010

Change the Weather History Date:

Monday, November 15, 2010

  Actual Average Record
Temperature  
Mean Temperature 34 °F -  
Max Temperature 43 °F 37 °F 60 °F (2006)
Min Temperature 25 °F 24 °F 21 °F (1996)
Degree Days  
Heating Degree Days 31    
Moisture  
Dew Point 29 °F    
Average Humidity 77    
Maximum Humidity 93    
Minimum Humidity 47    
Precipitation  
Precipitation 0.00 in 0.17 in - ()
Sea Level Pressure  
Sea Level Pressure 30.21 in    
Wind  
Wind Speed 3 mph ()    
Max Wind Speed 12 mph    
Max Gust Speed -    
Visibility 15.0 miles    
Events      
Averages and records for this station are not official NWS values.
T = Trace of Precipitation, MM = Missing Value Source: Averaged Metar Reports

Daily Weather History Graph

Daily Weather History Graph

Search for Another Location

Airport or City:

Astronomy

Nov. 15, 2010 Rise Set
Actual Time 7:13 AM AST 4:40 PM AST
Civil Twilight 6:41 AM AST 5:12 PM AST
Nautical Twilight 6:04 AM AST 5:49 PM AST
Astronomical Twilight 5:29 AM AST 6:24 PM AST
Moon 1:38 PM AST (11/15) 12:55 AM AST (11/15)
Length of Visible Light 10h 31m
Length of Day
9h 26m
Waxing Gibbous, 68% of the Moon is Illuminated
Nov 15
Waxing Gibbous
Nov 21
Full
Nov 28
Last Quarter
Dec 5
New
Dec 13
First Quarter

Hourly Weather History & Observations

Time (AST) Temp. Windchill Dew Point Humidity Pressure Visibility Wind Dir Wind Speed Gust Speed Precip Events Conditions
12:00 AM 30.2 °F 26.7 °F 24.8 °F 80% 30.24 in 15.0 mi ENE 3.5 mph - N/A   Partly Cloudy
1:00 AM 26.6 °F - 23.0 °F 86% 30.24 in 15.0 mi ENE 2.3 mph - N/A   Partly Cloudy
2:00 AM 28 °F - 24 °F 79% 30.23 in 15 mi East 2.3 mph - -   Clear
2:00 AM 28.4 °F - 24.8 °F 86% 30.23 in 15.0 mi Calm Calm - N/A   Partly Cloudy
3:00 AM 24.8 °F - 23.0 °F 93% 30.23 in 15.0 mi East 2.3 mph - N/A   Clear
4:00 AM 28.4 °F - 24.8 °F 86% 30.22 in 15.0 mi Calm Calm - N/A   Clear
5:00 AM 30.2 °F - 24.8 °F 80% 30.23 in 15.0 mi Calm Calm - N/A   Clear
6:00 AM 30.2 °F - 24.8 °F 80% 30.22 in 15.0 mi Calm Calm - N/A   Clear
7:00 AM 30.2 °F - 26.6 °F 86% 30.23 in 15.0 mi ESE 2.3 mph - N/A   Mostly Cloudy
8:00 AM 32 °F - 28 °F 77% 30.25 in 15 mi Calm Calm - -   Scattered Clouds
8:00 AM 32.0 °F - 28.4 °F 87% 30.25 in 15.0 mi Calm Calm - N/A   Mostly Cloudy
9:00 AM 33.8 °F 30.8 °F 30.2 °F 87% 30.25 in 15.0 mi ESE 3.5 mph - N/A   Mostly Cloudy
10:00 AM 39.2 °F 35.9 °F 33.8 °F 81% 30.25 in 15.0 mi SE 4.6 mph - N/A   Mostly Cloudy
11:00 AM 39.2 °F 32.5 °F 32.0 °F 75% 30.23 in 15.0 mi SSE 10.4 mph - N/A   Mostly Cloudy
12:00 PM 41.0 °F 37.1 °F 30.2 °F 65% 30.22 in 15.0 mi South 5.8 mph - N/A   Mostly Cloudy
1:00 PM 42.8 °F 38.0 °F 30.2 °F 61% 30.20 in 15.0 mi SSW 8.1 mph - N/A   Mostly Cloudy
2:00 PM 43 °F - 30 °F 47% 30.18 in 15 mi South 6.9 mph - -   Scattered Clouds
2:00 PM 42.8 °F 38.6 °F 30.2 °F 61% 30.18 in 15.0 mi South 6.9 mph - N/A   Mostly Cloudy
3:00 PM 42.8 °F 37.5 °F 32.0 °F 66% 30.17 in 15.0 mi South 9.2 mph - N/A   Mostly Cloudy
4:00 PM 41.0 °F 36.4 °F 32.0 °F 70% 30.17 in 15.0 mi SSE 6.9 mph - N/A   Mostly Cloudy
5:00 PM 39.2 °F 37.0 °F 32.0 °F 75% 30.18 in 15.0 mi SE 3.5 mph - N/A   Mostly Cloudy
6:00 PM 37.4 °F 33.8 °F 30.2 °F 75% 30.18 in 15.0 mi SE 4.6 mph - N/A   Mostly Cloudy
7:00 PM 37.4 °F 34.9 °F 30.2 °F 75% 30.20 in 15.0 mi SSE 3.5 mph - N/A   Mostly Cloudy
8:00 PM 38 °F - 31 °F 69% 30.20 in 15 mi SSE 4.6 mph - -   Partly Cloudy
8:00 PM 37.4 °F 33.8 °F 32.0 °F 81% 30.20 in 15.0 mi SSE 4.6 mph - N/A   Mostly Cloudy
9:00 PM 37.4 °F 33.8 °F 32.0 °F 81% 30.19 in 15.0 mi South 4.6 mph - N/A   Mostly Cloudy
10:00 PM 42.8 °F 36.6 °F 37.4 °F 81% 30.19 in 15.0 mi South 11.5 mph - N/A   Mostly Cloudy
11:00 PM 42.8 °F 37.5 °F 37.4 °F 81% 30.19 in 15.0 mi South 9.2 mph - N/A   Mostly Cloudy